�N����,����,�~����,�C��,���x,�C��,����,���ϕ���,�ő�u�ԕ���,�ő厞����,���˗�,�I�_���x,�n�����x,�ő啗���N��,DTYPE
"22/07/31","00:10",0.0,28.6,74.6,1007.8,332.4,1.5,3.4,348.2,0.00,23.7,26.3,"00:01:04",1
"22/07/31","00:20",0.0,28.2,75.3,1007.8,333.6,1.2,2.4,356.8,0.00,23.5,26.4,"00:12:32",1
"22/07/31","00:30",0.0,28.1,75.6,1007.8,325.7,0.3,1.3,331.2,0.00,23.4,26.2,"00:20:32",1
"22/07/31","00:40",0.0,27.8,76.2,1008.3,321.8,0.8,1.7,316.0,0.00,23.3,26.2,"00:38:00",1
"22/07/31","00:50",0.0,27.6,76.8,1007.8,334.8,1.0,1.8,347.3,0.00,23.2,26.2,"00:40:32",1
"22/07/31","01:00",0.0,27.4,78.1,1007.8,355.2,1.0,1.3,2.0,0.00,23.3,26.1,"00:50:56",1
"22/07/31","01:10",0.0,27.0,79.7,1008.3,356.7,1.0,1.4,358.8,0.00,23.2,26.1,"01:03:28",1
"22/07/31","01:20",0.0,26.5,80.9,1008.1,307.6,0.6,1.6,4.1,0.00,23.0,26.2,"01:13:12",1
"22/07/31","01:30",0.0,26.2,82.0,1008.1,348.4,0.2,0.9,348.7,0.00,22.9,26.2,"01:25:04",1
"22/07/31","01:40",0.0,26.1,82.9,1008.1,3.6,0.7,1.2,356.4,0.00,23.0,26.0,"01:34:40",1
"22/07/31","01:50",0.0,25.8,83.6,1008.3,330.9,0.7,1.1,339.8,0.00,22.9,26.0,"01:40:08",1
"22/07/31","02:00",0.0,25.6,84.4,1008.1,302.1,0.7,1.3,265.9,0.00,22.8,26.0,"01:59:36",1
"22/07/31","02:10",0.0,25.6,84.8,1007.8,292.3,0.8,1.6,307.8,0.00,22.9,25.9,"02:03:20",1
"22/07/31","02:20",0.0,25.6,85.0,1008.1,317.0,1.0,1.3,334.1,0.00,22.9,25.9,"02:13:44",1
"22/07/31","02:30",0.0,25.5,85.2,1008.3,334.9,1.1,1.7,323.8,0.00,22.9,26.1,"02:27:12",1
"22/07/31","02:40",0.0,25.4,85.3,1008.3,333.2,0.8,1.4,341.2,0.00,22.8,26.0,"02:31:52",1
"22/07/31","02:50",0.0,25.2,85.7,1008.1,329.3,1.0,1.3,339.4,0.00,22.7,26.1,"02:45:28",1
"22/07/31","03:00",0.0,25.0,86.3,1008.3,293.3,0.8,1.1,266.0,0.00,22.6,26.1,"02:51:28",1
"22/07/31","03:10",0.0,25.0,86.8,1008.8,315.6,0.8,1.3,319.8,0.00,22.7,25.9,"03:08:48",1
"22/07/31","03:20",0.0,24.9,87.1,1008.6,307.2,0.7,1.2,297.7,0.00,22.6,25.9,"03:10:02",1
"22/07/31","03:30",0.0,24.8,87.3,1008.1,300.1,0.7,1.2,307.4,0.00,22.6,25.7,"03:20:16",1
"22/07/31","03:40",0.0,24.8,87.6,1008.6,289.5,0.7,1.1,258.2,0.00,22.6,25.9,"03:37:12",1
"22/07/31","03:50",0.0,24.8,87.7,1009.0,329.1,1.0,1.3,313.2,0.00,22.7,26.0,"03:41:20",1
"22/07/31","04:00",0.0,24.6,88.0,1008.6,318.3,0.8,1.3,322.3,0.00,22.5,25.7,"03:58:00",1
"22/07/31","04:10",0.0,24.6,88.3,1008.8,304.5,0.8,1.4,317.1,0.00,22.6,26.0,"04:02:40",1
"22/07/31","04:20",0.0,24.6,88.4,1008.3,291.1,0.6,1.1,263.7,0.00,22.6,25.7,"04:11:04",1
"22/07/31","04:30",0.0,24.5,88.5,1008.6,325.9,0.7,1.1,320.8,0.00,22.5,26.0,"04:21:36",1
"22/07/31","04:40",0.0,24.4,88.7,1008.3,326.1,1.0,1.2,350.4,0.00,22.5,25.6,"04:31:04",1
"22/07/31","04:50",0.0,24.4,89.0,1008.1,313.0,0.7,1.1,353.6,0.00,22.5,25.6,"04:40:40",1
"22/07/31","05:00",0.0,24.5,89.2,1008.6,287.0,0.7,1.1,315.4,0.00,22.6,25.7,"04:56:40",1
"22/07/31","05:10",0.0,24.6,89.2,1008.6,322.5,0.8,1.3,324.1,0.00,22.7,25.6,"05:01:52",1
"22/07/31","05:20",0.0,24.6,89.1,1008.6,315.1,0.5,1.0,342.8,0.00,22.7,25.6,"05:11:12",1
"22/07/31","05:30",0.0,24.3,89.2,1008.6,313.7,0.7,0.9,331.5,0.00,22.4,25.6,"05:21:04",1
"22/07/31","05:40",0.0,24.4,89.5,1008.6,336.7,1.0,1.4,332.7,0.00,22.6,25.7,"05:35:04",1
"22/07/31","05:50",0.0,24.2,89.7,1008.3,317.5,0.5,1.1,348.8,0.00,22.4,25.5,"05:40:48",1
"22/07/31","06:00",0.0,24.3,90.0,1008.1,332.9,1.0,1.3,343.9,0.00,22.6,25.5,"05:55:44",1
"22/07/31","06:10",0.0,24.2,90.2,1008.6,332.5,0.8,1.2,339.0,0.00,22.5,25.4,"06:00:32",1
"22/07/31","06:20",0.0,24.2,90.4,1008.6,276.9,0.6,0.8,273.0,0.00,22.6,25.6,"06:16:32",1
"22/07/31","06:30",0.0,24.2,90.6,1008.6,308.4,0.8,1.3,333.6,0.00,22.6,25.6,"06:25:44",1
"22/07/31","06:40",0.0,24.5,90.8,1008.8,337.4,1.0,1.1,324.4,0.01,22.9,25.4,"06:30:24",1
"22/07/31","06:50",0.0,24.9,90.9,1008.8,316.0,0.8,1.3,326.9,0.02,23.4,25.5,"06:42:40",1
"22/07/31","07:00",0.0,25.5,91.1,1008.6,300.2,0.6,1.1,320.6,0.05,24.0,25.4,"06:57:04",1
"22/07/31","07:10",0.0,26.0,90.7,1008.3,299.5,0.6,1.6,316.4,0.05,24.4,25.5,"07:01:28",1
"22/07/31","07:20",0.0,26.5,90.4,1008.8,305.3,0.3,1.0,318.6,0.06,24.8,25.2,"07:19:20",1
"22/07/31","07:30",0.0,26.7,90.0,1008.3,330.6,0.6,1.0,330.5,0.07,25.0,25.5,"07:23:04",1
"22/07/31","07:40",0.0,27.1,89.0,1008.3,316.0,0.2,0.5,323.0,0.07,25.2,25.2,"07:36:00",1
"22/07/31","07:50",0.0,27.1,87.8,1008.3,329.8,0.6,1.0,334.7,0.09,24.9,25.3,"07:44:16",1
"22/07/31","08:00",0.0,27.7,85.9,1008.6,323.0,0.6,1.2,346.9,0.12,25.2,25.2,"07:53:12",1
"22/07/31","08:10",0.0,28.1,83.4,1007.6,288.6,0.5,1.0,329.9,0.10,25.1,25.6,"08:03:12",1
"22/07/31","08:20",0.0,28.6,81.6,1007.8,259.4,0.1,0.6,305.4,0.12,25.2,25.4,"08:10:08",1
"22/07/31","08:30",0.0,29.2,79.5,1008.1,321.8,0.1,0.9,3.6,0.20,25.3,25.5,"08:29:20",1
"22/07/31","08:40",0.0,30.0,75.7,1008.6,48.8,0.3,1.0,119.8,0.19,25.3,25.3,"08:34:32",1
"22/07/31","08:50",0.0,31.1,71.8,1008.8,34.8,0.6,1.6,9.7,0.34,25.4,25.4,"08:43:20",1
"22/07/31","09:00",0.0,31.5,68.0,1009.3,18.7,0.8,1.8,6.8,0.29,24.9,25.5,"08:56:40",1
"22/07/31","09:10",0.0,31.8,68.6,1009.7,148.7,0.7,1.4,222.0,0.37,25.3,25.5,"09:09:36",1
"22/07/31","09:20",0.0,32.4,67.1,1010.2,28.2,0.6,1.7,64.1,0.42,25.5,25.7,"09:16:48",1
"22/07/31","09:30",0.0,32.9,63.8,1010.7,41.8,0.6,2.1,75.0,0.44,25.2,25.4,"09:29:36",1
"22/07/31","09:40",0.0,32.4,63.3,1010.4,47.4,0.8,2.1,105.4,0.31,24.6,25.7,"09:32:08",1
"22/07/31","09:50",0.0,32.3,64.2,1010.2,73.5,0.8,2.1,54.7,0.34,24.7,25.4,"09:43:20",1
"22/07/31","10:00",0.0,32.3,63.9,1010.0,344.6,0.8,1.9,351.4,0.36,24.6,25.7,"09:53:52",1
"22/07/31","10:10",0.0,33.0,63.0,1010.2,15.5,0.6,2.0,23.3,0.46,25.1,25.8,"10:02:40",1
"22/07/31","10:20",0.0,33.5,60.3,1010.7,357.9,0.8,2.2,40.4,0.49,24.8,25.7,"10:10:48",1
"22/07/31","10:30",0.0,33.8,59.2,1010.4,59.3,0.8,2.5,15.8,0.50,24.8,25.7,"10:23:28",1
"22/07/31","10:40",0.0,34.3,59.0,1010.4,101.1,1.0,2.4,139.5,0.52,25.2,25.9,"10:37:20",1
"22/07/31","10:50",0.0,33.9,57.2,1010.7,172.4,1.6,3.5,226.1,0.52,24.3,25.6,"10:49:12",1
"22/07/31","11:00",0.0,34.4,57.0,1010.7,195.2,1.2,3.3,229.2,0.54,24.7,25.8,"10:51:52",1
"22/07/31","11:10",0.0,34.6,54.9,1010.7,191.0,1.2,2.7,204.9,0.52,24.2,25.9,"11:04:24",1
"22/07/31","11:20",0.0,34.5,54.9,1010.4,157.2,1.5,4.2,134.4,0.46,24.2,25.9,"11:17:44",1
"22/07/31","11:30",0.0,34.2,56.9,1010.0,220.9,1.6,4.0,228.3,0.32,24.5,26.0,"11:28:24",1
"22/07/31","11:40",0.0,34.4,53.9,1009.7,223.1,1.8,5.5,232.3,0.46,23.8,25.8,"11:30:48",1
"22/07/31","11:50",0.0,34.1,52.4,1009.7,241.0,1.6,3.9,228.4,0.30,23.0,26.4,"11:49:04",1
"22/07/31","12:00",0.0,34.3,53.8,1009.3,218.4,1.1,4.2,245.1,0.35,23.6,26.2,"11:57:52",1
"22/07/31","12:10",0.0,34.8,51.3,1009.5,198.4,1.8,4.8,200.8,0.53,23.3,26.0,"12:03:12",1
"22/07/31","12:20",0.0,34.8,51.6,1009.5,139.2,1.5,4.5,132.5,0.43,23.4,26.2,"12:16:32",1
"22/07/31","12:30",0.0,35.2,52.7,1009.0,200.4,1.3,2.9,197.2,0.44,24.1,26.2,"12:27:04",1
"22/07/31","12:40",0.0,35.0,51.3,1009.7,197.6,1.7,4.4,204.6,0.38,23.5,26.3,"12:32:32",1
"22/07/31","12:50",0.0,34.5,51.6,1009.3,189.6,1.7,5.0,234.5,0.30,23.1,26.4,"12:41:20",1
"22/07/31","13:00",0.0,36.0,51.9,1008.8,13.8,1.1,2.9,350.8,0.57,24.6,26.5,"12:58:32",1
"22/07/31","13:10",0.0,36.3,48.4,1009.3,248.8,1.3,3.7,206.8,0.64,23.7,26.5,"13:07:44",1
"22/07/31","13:20",0.0,36.5,48.3,1009.3,256.6,1.0,5.0,218.1,0.58,23.9,26.4,"13:10:02",1
"22/07/31","13:30",0.0,36.4,47.5,1009.0,203.7,2.0,4.1,201.9,0.60,23.5,26.4,"13:24:48",1
"22/07/31","13:40",0.0,35.8,51.9,1008.8,194.0,1.6,3.4,238.4,0.35,24.4,26.4,"13:38:32",1
"22/07/31","13:50",0.0,37.0,47.7,1009.0,180.3,1.1,2.8,180.8,0.62,24.1,26.5,"13:45:52",1
"22/07/31","14:00",0.0,36.8,46.4,1008.8,205.5,2.0,4.9,198.9,0.59,23.5,26.7,"13:53:52",1
"22/07/31","14:10",0.0,36.9,45.6,1008.8,216.8,2.0,5.0,202.0,0.56,23.3,26.3,"14:00:48",1
"22/07/31","14:20",0.0,36.5,47.3,1008.6,216.2,2.3,6.8,224.4,0.48,23.5,26.7,"14:12:48",1
"22/07/31","14:30",0.0,36.7,47.0,1008.8,211.2,2.0,5.9,217.6,0.54,23.6,26.8,"14:24:32",1
"22/07/31","14:40",0.0,36.9,47.3,1008.6,243.9,1.5,3.2,227.7,0.52,23.9,26.6,"14:34:08",1
"22/07/31","14:50",0.0,36.5,49.5,1008.3,213.2,2.3,5.0,194.4,0.44,24.3,26.9,"14:41:36",1
"22/07/31","15:00",0.0,36.1,47.5,1008.3,271.8,1.3,3.7,225.1,0.35,23.2,26.8,"14:51:04",1
"22/07/31","15:10",0.0,35.9,48.5,1008.3,242.2,1.7,4.1,213.5,0.32,23.4,26.7,"15:03:12",1
"22/07/31","15:20",0.0,35.9,47.4,1008.1,233.4,1.7,4.2,200.4,0.32,23.0,26.7,"15:19:44",1
"22/07/31","15:30",0.0,35.9,47.6,1008.1,249.5,1.6,5.1,245.9,0.35,23.1,26.8,"15:27:20",1
"22/07/31","15:40",0.0,35.5,47.9,1008.1,251.3,1.8,4.3,234.6,0.27,22.8,26.7,"15:37:28",1
"22/07/31","15:50",0.0,35.5,47.9,1007.6,231.6,2.3,5.2,213.1,0.29,22.8,26.8,"15:42:40",1
"22/07/31","16:00",0.0,35.3,49.9,1008.1,240.8,1.7,4.1,238.2,0.25,23.3,27.0,"15:51:20",1
"22/07/31","16:10",0.0,34.5,51.3,1007.6,284.4,1.2,3.3,229.5,0.12,23.0,26.8,"16:02:08",1
"22/07/31","16:20",0.0,34.6,52.5,1007.8,259.5,1.3,3.3,244.8,0.20,23.5,26.8,"16:16:16",1
"22/07/31","16:30",0.0,35.3,51.5,1007.8,224.8,1.3,3.4,231.6,0.27,23.8,26.9,"16:23:28",1
"22/07/31","16:40",0.0,34.5,52.5,1007.6,228.7,2.2,4.7,205.3,0.12,23.4,27.0,"16:30:56",1
"22/07/31","16:50",0.0,34.6,55.1,1007.4,226.9,1.2,3.5,226.1,0.16,24.3,27.1,"16:42:40",1
"22/07/31","17:00",0.0,34.4,52.4,1007.4,308.8,1.1,4.5,240.8,0.09,23.3,26.9,"16:58:16",1
"22/07/31","17:10",0.0,34.0,53.7,1007.4,232.0,1.2,4.0,234.9,0.10,23.3,26.9,"17:00:48",1
"22/07/31","17:20",0.0,34.4,53.6,1007.1,282.6,1.0,2.8,313.3,0.15,23.7,26.8,"17:13:36",1
"22/07/31","17:30",0.0,34.4,53.3,1007.1,280.7,0.8,2.6,323.7,0.12,23.6,27.0,"17:20:48",1
"22/07/31","17:40",0.0,34.5,51.3,1007.1,270.8,1.5,3.1,234.2,0.14,23.0,26.8,"17:32:56",1
"22/07/31","17:50",0.0,35.0,50.9,1007.6,306.9,1.2,2.5,297.6,0.16,23.4,26.9,"17:42:08",1
"22/07/31","18:00",0.0,34.8,50.6,1007.4,240.8,1.5,3.7,220.7,0.06,23.1,27.0,"17:57:36",1
"22/07/31","18:10",0.0,34.6,52.0,1007.4,264.2,1.1,3.9,258.4,0.01,23.3,27.0,"18:04:08",1
"22/07/31","18:20",0.0,34.2,53.8,1007.8,295.9,1.2,3.1,321.0,0.01,23.5,27.1,"18:10:24",1
"22/07/31","18:30",0.0,33.9,55.4,1007.1,276.9,1.1,2.9,354.6,0.00,23.7,27.2,"18:28:24",1
"22/07/31","18:40",0.0,33.3,56.8,1007.4,257.7,0.7,2.0,16.3,0.00,23.6,27.0,"18:39:52",1
"22/07/31","18:50",0.0,32.9,58.5,1007.1,306.7,0.8,1.7,338.4,0.00,23.7,27.0,"18:43:20",1
"22/07/31","19:00",0.0,32.5,60.1,1006.9,287.3,0.8,2.4,249.6,0.00,23.8,26.9,"18:55:52",1
"22/07/31","19:10",0.0,32.0,62.5,1006.4,350.5,0.7,1.4,3.7,0.00,24.0,26.9,"19:02:16",1
"22/07/31","19:20",0.0,31.2,64.9,1006.2,36.7,0.7,1.8,357.5,0.00,23.9,26.9,"19:10:56",1
"22/07/31","19:30",0.0,30.8,65.7,1005.7,16.1,0.7,2.4,348.9,0.00,23.7,26.9,"19:29:04",1
"22/07/31","19:40",0.0,30.5,67.1,1006.0,332.9,1.0,1.8,352.8,0.00,23.7,26.8,"19:33:20",1
"22/07/31","19:50",0.0,30.2,69.4,1005.7,352.3,1.0,2.1,356.9,0.00,24.0,26.9,"19:49:44",1
"22/07/31","20:00",0.0,29.4,71.8,1005.5,333.6,1.1,1.8,346.3,0.00,23.8,26.9,"19:50:32",1
"22/07/31","20:10",0.0,29.3,72.6,1005.5,326.8,1.1,1.9,358.0,0.00,23.9,26.9,"20:02:16",1
"22/07/31","20:20",0.0,29.3,72.9,1005.5,331.5,1.2,2.4,337.9,0.00,24.0,26.8,"20:18:48",1
"22/07/31","20:30",0.0,29.1,73.5,1005.7,347.1,1.2,2.6,348.4,0.00,23.9,26.9,"20:20:56",1
"22/07/31","20:40",0.0,28.9,74.6,1006.0,342.8,0.8,1.7,5.4,0.00,24.0,26.9,"20:35:04",1
"22/07/31","20:50",0.0,28.7,75.7,1006.0,2.7,1.0,1.7,26.8,0.00,24.0,26.7,"20:41:36",1
"22/07/31","21:00",0.0,28.8,75.8,1006.4,353.8,1.1,1.7,0.3,0.00,24.1,26.9,"20:53:36",1
"22/07/31","21:10",0.0,28.6,76.1,1006.4,343.8,1.0,1.8,351.4,0.00,24.0,26.8,"21:09:52",1
"22/07/31","21:20",0.0,28.6,76.3,1006.7,336.2,1.3,2.7,343.0,0.00,24.1,26.7,"21:10:24",1
"22/07/31","21:30",0.0,28.5,76.4,1006.4,339.5,1.5,2.5,348.9,0.00,24.0,26.8,"21:29:20",1
"22/07/31","21:40",0.0,28.5,76.4,1006.4,340.7,1.5,3.1,334.8,0.00,24.0,26.7,"21:30:48",1
"22/07/31","21:50",0.0,28.4,76.0,1006.7,336.0,1.2,2.2,338.0,0.00,23.8,26.5,"21:48:32",1
"22/07/31","22:00",0.0,28.5,75.2,1006.9,338.5,1.2,2.4,351.1,0.00,23.7,26.8,"21:58:00",1
"22/07/31","22:10",0.0,28.8,73.5,1006.9,316.4,1.3,3.2,341.1,0.00,23.6,26.7,"22:06:40",1
"22/07/31","22:20",0.0,29.0,71.8,1006.9,329.5,1.6,3.4,337.1,0.00,23.4,26.8,"22:18:56",1
"22/07/31","22:30",0.0,29.1,71.3,1006.9,341.0,1.6,2.9,343.9,0.00,23.4,26.5,"22:25:04",1
"22/07/31","22:40",0.0,29.0,71.5,1006.7,339.2,1.3,3.1,302.5,0.00,23.4,26.7,"22:35:44",1
"22/07/31","22:50",0.0,28.8,72.3,1007.1,351.3,1.3,2.7,342.5,0.00,23.4,26.6,"22:41:04",1
"22/07/31","23:00",0.0,28.6,72.9,1007.4,356.3,0.8,1.6,343.2,0.00,23.3,26.4,"22:50:40",1
"22/07/31","23:10",0.0,28.6,73.5,1006.9,11.0,0.8,1.7,339.5,0.00,23.4,26.5,"23:09:44",1
"22/07/31","23:20",0.0,28.5,73.6,1007.1,358.9,1.1,2.5,347.5,0.00,23.4,26.5,"23:17:52",1
"22/07/31","23:30",0.0,28.4,74.2,1007.1,339.7,0.8,1.4,335.8,0.00,23.4,26.6,"23:21:28",1
"22/07/31","23:40",0.0,28.1,75.4,1007.1,343.0,0.8,1.6,350.6,0.00,23.4,26.5,"23:31:36",1
"22/07/31","23:50",0.0,28.0,76.2,1007.4,337.0,0.6,1.1,348.9,0.00,23.5,26.5,"23:44:08",1
"22/07/31","24:00",0.0,27.7,77.0,1007.1,310.2,0.7,1.3,342.8,0.00,23.3,26.4,"23:59:52",1
